Temperature
8 9 9 9 9 9 10 10 10 10 9 8 9 9 9 8 7 7 6 6 5 5 5 5 6 6 6 6 7 7 7 7 7 7 7 7 7 7 7 7 7 7 7 7
8 8 8 8 8 8 8 9 9 9 8 8 9 8 8 8 7 7 6 6 5 5 4 5 5 6 6 6 6 6 6 6 6 6 6 6 6 6 6 6 6 6 6 6
8 8 7 7 7 7 8 8 8 8 7 7 7 9 9 8 6 5 5 5 5 4 4 4 4 5 5 5 6 6 6 6 6 6 6 6 6 6 6 6 6 6 6 6
7 7 6 7 7 7 8 8 7 7 7 8 8 9 10 8 7 6 5 5 4 4 4 4 4 4 5 5 5 5 5 5 5 5 5 5 5 5 5 5 5 5 5 5
7 6 6 6 7 6 7 6 6 6 7 7 7 7 10 8 7 7 6 5 4 4 3 3 4 4 4 4 4 4 4 4 4 4 4 5 5 5 5 5 5 5 5 4
6 5 5 6 6 6 5 6 6 6 6 7 7 7 9 9 8 8 7 5 4 3 3 3 3 3 3 3 3 3 4 4 4 4 4 4 4 4 4 4 4 4 4 4
6 5 5 5 5 5 6 7 7 7 7 8 6 6 8 9 7 7 6 4 3 3 3 3 3 3 3 3 3 3 3 3 3 3 3 3 3 4 4 4 4 4 4 4
6 6 5 4 5 5 5 6 7 8 8 8 6 6 8 6 4 4 3 3 2 2 2 2 2 2 2 2 2 2 2 2 2 2 2 3 3 3 3 3 3 3 3 3
6 6 4 4 4 5 5 6 5 6 5 6 7 7 6 5 4 3 3 2 2 2 2 2 2 2 2 2 2 2 1 1 1 2 2 2 2 2 3 3 3 3 3 3
5 4 4 3 4 3 4 5 5 5 6 7 7 7 8 6 5 4 3 2 2 1 1 2 2 2 1 1 1 1 1 1 1 1 1 1 2 2 2 2 2 2 3 3
4 4 4 3 3 4 3 3 4 5 5 6 7 8 6 6 5 4 3 2 1 1 1 1 1 1 1 1 1 0 0 0 0 1 1 1 1 2 2 2 2 2 2 2
3 4 4 4 3 3 3 4 4 4 4 4 6 7 4 3 3 2 2 1 0 0 0 0 0 0 -0 -0 -0 -0 -0 -0 0 0 0 1 1 1 1 1 1 1 1 1
2 2 4 4 3 1 2 2 2 2 3 4 5 6 3 2 2 1 0 -0 -0 -0 -0 -0 -0 -0 -0 -1 -1 -1 -1 -1 -0 -0 -0 0 0 0 0 0 0 0 0 0
2 2 3 5 5 3 2 1 1 1 3 4 4 5 4 3 2 1 0 -1 -1 -1 -1 -1 -1 -1 -1 -1 -1 -1 -1 -1 -1 -1 -1 -0 0 0 -0 -0 -0 -0 -0 -0
2 2 1 2 2 2 2 2 1 1 2 3 4 4 4 3 2 1 -0 -1 -2 -2 -2 -1 -1 -1 -1 -1 -2 -2 -2 -2 -1 -1 -1 -1 -1 -1 -1 -1 -1 -1 -1 -1
0 1 0 0 1 1 1 2 2 1 2 2 2 3 3 2 1 0 -1 -2 -2 -2 -2 -2 -2 -2 -2 -2 -2 -2 -2 -2 -2 -2 -2 -2 -1 -1 -1 -1 -2 -1 -2 -2
-0 -0 0 2 1 0 2 2 1 1 1 1 2 2 1 0 -0 -1 -1 -2 -2 -3 -2 -2 -2 -2 -2 -2 -2 -2 -3 -3 -3 -3 -2 -2 -2 -2 -2 -2 -2 -2 -2 -2
-1 -1 0 1 0 1 3 0 0 0 0 -1 -0 -0 -0 -1 -2 -2 -2 -2 -3 -3 -3 -3 -2 -2 -3 -3 -3 -3 -3 -3 -3 -3 -3 -3 -3 -3 -3 -3 -3 -3 -3 -3
-1 -1 -0 0 1 2 2 -1 -2 -1 -1 -2 -2 -2 -2 -3 -3 -2 -2 -3 -3 -4 -3 -3 -3 -3 -3 -3 -3 -4 -4 -4 -4 -4 -4 -4 -4 -4 -3 -3 -3 -3 -3 -3
-3 -2 -1 -1 0 1 2 -2 -4 -2 -0 -2 -3 -3 -4 -4 -2 -1 -3 -4 -4 -4 -4 -4 -3 -3 -4 -4 -4 -4 -4 -4 -4 -4 -4 -4 -4 -4 -4 -4 -4 -4 -4 -4
-3 -2 -1 -1 -0 1 -1 -4 -3 -1 -0 -4 -5 -5 -5 -5 -4 -5 -5 -5 -5 -5 -5 -4 -4 -4 -4 -5 -5 -5 -5 -5 -5 -5 -5 -5 -5 -5 -5 -5 -5 -5 -5 -5
-2 -2 -2 -2 -1 -0 -4 -4 -2 -2 -4 -5 -5 -6 -6 -6 -6 -6 -6 -6 -6 -6 -6 -5 -5 -5 -5 -5 -6 -6 -6 -5 -5 -5 -5 -5 -5 -5 -5 -5 -5 -6 -6 -6
-3 -2 -2 -2 -1 -3 -5 -4 -5 -5 -5 -6 -6 -6 -7 -7 -7 -7 -7 -7 -7 -7 -6 -6 -6 -6 -6 -6 -6 -6 -6 -6 -6 -6 -6 -6 -6 -6 -6 -6 -6 -6 -6 -6
-4 -6 -4 -4 -3 -4 -6 -6 -6 -6 -6 -6 -6 -7 -7 -7 -7 -7 -7 -7 -7 -7 -7 -7 -7 -7 -7 -7 -7 -7 -7 -7 -7 -7 -7 -7 -7 -6 -6 -7 -7 -7 -7 -7
-4 -6 -6 -5 -5 -6 -6 -6 -6 -6 -7 -7 -7 -7 -7 -8 -8 -8 -8 -8 -8 -8 -8 -8 -8 -7 -7 -7 -7 -7 -7 -7 -7 -7 -7 -7 -7 -7 -7 -7 -7 -7 -7 -7
-6 -6 -5 -4 -5 -6 -6 -6 -7 -7 -7 -7 -7 -8 -8 -8 -8 -8 -8 -8 -8 -8 -8 -8 -8 -8 -8 -8 -8 -8 -8 -8 -8 -8 -8 -8 -8 -8 -8 -8 -8 -8 -8 -8
Wind_Speed
1 3 4 6 6 4 4 7 8 6 2 5 10 11 10 7 7 8 7 7 7 7 5 4 3 2 2 1 2 2 3 2 3 3 3 3 3 3 3 3 4 5 5 6
2 4 4 4 4 4 5 6 7 5 3 5 8 11 10 8 8 9 9 8 8 7 5 4 3 3 3 2 2 3 3 3 3 3 3 3 3 3 3 3 4 4 5 5
4 1 2 4 4 5 7 7 6 6 5 3 6 9 9 6 6 6 7 7 7 7 6 5 5 4 3 3 3 2 3 3 3 3 2 2 2 2 2 3 3 4 5 5
3 1 2 4 5 5 7 5 5 6 5 4 4 7 8 7 7 7 7 7 7 6 6 5 5 5 4 3 3 3 2 2 3 3 3 5 4 4 4 4 3 4 5 5
2 1 2 4 5 5 3 1 4 5 6 6 6 7 8 5 8 9 9 8 7 6 6 6 5 5 3 3 3 2 2 2 2 3 3 4 4 3 3 3 4 4 4 5
2 1 2 2 1 3 2 1 1 2 4 7 8 8 9 6 8 7 7 7 6 5 5 5 5 4 3 2 2 2 2 2 2 2 3 3 4 3 3 4 4 4 4 4
2 1 1 1 1 3 3 3 3 4 5 6 3 7 9 4 5 6 6 5 5 5 5 5 5 4 4 3 2 2 3 3 2 3 3 3 4 4 5 5 5 5 4 4
3 4 3 2 3 4 6 5 5 5 5 4 3 8 6 2 3 4 4 4 4 4 4 4 5 4 4 3 3 3 3 3 3 3 3 3 3 3 4 4 4 6 5 5
4 4 1 1 1 4 4 6 3 3 3 6 6 6 7 3 4 3 3 3 4 4 4 4 4 4 4 4 4 4 4 4 4 4 3 3 3 3 3 4 4 5 5 5
3 4 2 1 2 1 2 3 3 4 4 7 8 9 6 4 5 3 4 5 5 4 4 4 4 4 4 4 4 4 4 4 4 4 3 3 3 3 3 3 4 4 5 5
3 4 2 2 5 5 4 4 4 4 5 6 7 6 2 5 3 4 5 5 5 4 4 4 4 3 4 3 3 3 3 3 3 3 3 3 3 3 3 3 3 4 5 5
3 3 4 5 2 3 6 7 7 6 6 6 8 8 1 2 3 4 5 5 5 5 4 4 4 3 3 4 3 3 3 3 3 3 3 3 3 3 3 3 3 3 3 4
3 4 3 3 3 3 5 5 7 6 5 8 9 8 1 2 4 4 5 6 5 5 4 4 4 4 4 4 4 3 3 3 3 3 3 3 3 3 3 3 3 3 3 4
3 4 8 10 7 4 7 8 9 8 8 11 15 16 10 8 8 8 7 7 7 6 5 5 5 5 5 5 4 4 4 3 3 3 3 3 3 3 4 3 3 3 3 4
3 6 8 11 10 8 11 12 13 14 14 13 16 18 16 12 11 11 9 7 7 6 6 6 6 5 5 4 4 4 4 3 3 3 4 4 3 3 3 3 3 3 4 4
3 5 5 9 9 9 12 14 15 17 16 17 19 19 13 11 10 11 10 8 8 8 7 7 6 6 6 5 5 4 4 3 3 4 4 3 3 3 3 3 3 3 4 4
4 5 4 8 6 7 12 12 13 11 12 12 16 15 11 10 11 11 10 9 8 8 7 7 7 7 6 6 5 5 4 4 4 4 4 3 3 3 3 3 3 4 4 4
6 5 4 5 4 10 5 1 7 11 12 12 11 11 10 10 11 10 9 7 8 8 7 7 6 6 6 5 5 4 4 4 4 4 3 3 3 3 3 3 3 4 4 4
7 7 5 4 8 12 7 2 3 6 10 8 11 12 10 9 9 8 4 6 8 8 7 7 6 5 5 4 4 3 4 4 4 4 4 4 4 4 3 4 4 3 4 4
4 6 6 6 7 9 5 1 1 3 8 2 5 8 7 5 6 6 5 6 6 6 5 5 4 4 3 3 3 4 4 4 5 5 4 4 4 4 4 4 4 4 4 4
4 5 9 10 10 9 2 1 3 5 4 2 4 5 4 5 6 6 6 6 5 5 5 4 3 3 3 2 3 4 4 5 4 3 3 3 4 4 4 4 3 4 3 4
7 6 7 7 8 8 2 4 5 4 3 3 3 4 4 6 6 6 6 6 5 5 5 3 3 3 3 2 3 3 4 3 3 3 3 3 3 3 3 3 3 3 3 4
7 7 5 7 7 2 4 4 3 2 3 3 4 4 4 5 6 6 6 6 5 5 4 3 2 3 2 2 2 3 3 2 2 2 3 3 3 3 3 3 3 3 3 3
5 3 4 6 8 5 5 5 4 4 4 4 4 5 5 6 6 6 5 5 5 4 4 3 3 2 3 2 2 2 1 1 2 2 2 2 3 3 2 3 3 3 3 4
4 5 5 8 6 5 5 5 5 4 5 5 5 5 5 6 6 5 5 4 4 4 3 3 3 3 3 3 2 2 1 1 1 1 1 2 2 2 2 2 3 4 4 5
5 6 6 7 3 4 4 3 3 4 5 5 5 5 4 4 5 5 4 4 3 3 3 3 3 3 3 3 3 2 2 1 1 1 1 1 1 1 2 2 2 2 4 5
Wind_Direction
109 180 207 218 220 241 237 239 250 256 267 245 247 258 259 241 229 225 219 215 213 217 218 210 205 197 188 185 166 164 161 151 146 158 168 168 174 171 167 162 165 168 168 167
159 221 233 228 216 219 229 245 257 271 290 266 265 270 266 247 232 226 224 223 221 221 214 212 209 201 197 194 181 180 181 167 165 180 186 185 177 186 176 163 165 173 173 175
202 268 191 189 199 219 237 238 255 275 310 265 276 270 248 239 226 227 229 231 227 222 216 208 208 207 206 211 206 196 196 188 182 180 167 149 154 163 178 182 185 186 183 178
222 254 184 201 220 222 243 235 245 259 265 261 248 268 249 236 233 231 229 229 228 225 222 215 211 209 210 222 215 199 192 187 191 179 175 176 187 194 205 200 200 195 192 190
216 207 205 219 232 220 236 236 239 245 249 265 243 257 265 226 241 242 235 232 230 225 222 218 213 209 210 220 212 201 190 180 184 193 185 183 193 205 202 200 202 201 196 197
250 228 240 246 246 197 174 147 180 210 226 248 235 237 265 225 235 244 236 231 228 224 221 219 210 205 204 210 205 197 194 193 190 193 198 196 190 194 200 205 203 209 210 201
247 215 209 215 180 167 193 204 234 229 226 246 194 234 255 246 240 243 245 234 231 224 218 214 211 210 205 206 203 203 201 203 204 203 209 218 208 202 207 214 210 209 213 214
230 240 199 199 213 211 209 218 233 251 253 270 223 238 257 288 281 272 271 254 238 234 224 218 218 216 211 214 207 207 211 211 210 213 220 227 220 216 216 222 222 214 213 215
229 244 160 201 240 209 200 217 253 271 273 269 250 259 279 262 272 277 282 274 245 240 228 221 220 219 214 214 214 213 216 220 216 218 219 225 224 226 230 233 228 225 219 215
218 248 249 216 187 198 240 185 192 220 248 258 261 258 254 238 248 271 287 275 262 252 234 224 222 223 222 222 220 217 218 223 225 222 221 227 229 235 236 234 230 229 218 211
214 230 247 210 215 218 180 190 213 222 248 254 266 264 255 237 252 266 278 276 258 249 249 240 233 232 226 220 215 216 220 226 229 232 233 235 234 237 238 234 236 242 221 207
200 224 248 244 259 258 221 220 209 230 239 243 263 271 90 265 287 283 282 279 269 259 259 259 243 233 231 227 223 219 221 228 235 235 237 241 241 239 239 238 243 247 233 214
177 200 246 249 212 203 234 233 228 247 250 241 248 260 102 296 297 295 291 285 276 266 264 264 255 239 235 233 231 231 231 232 235 232 236 240 240 243 246 245 245 249 243 228
186 214 233 249 267 236 242 238 229 226 240 247 248 262 272 286 293 297 295 287 277 265 264 265 261 249 237 231 232 235 236 235 233 230 232 238 241 244 247 245 241 243 243 235
198 239 249 263 270 256 251 245 230 228 238 250 261 267 273 279 285 289 288 284 273 266 267 263 261 258 244 236 237 237 238 236 232 230 234 240 245 245 242 241 240 242 241 239
214 236 251 267 262 262 265 254 241 240 245 252 266 273 278 285 284 281 281 279 269 268 268 267 267 262 253 244 238 236 236 236 231 233 240 246 243 238 236 236 237 240 242 241
201 206 232 267 282 279 260 242 231 236 238 242 253 264 284 285 279 278 278 272 267 274 277 271 266 257 253 250 240 230 231 231 229 232 241 239 230 232 236 236 232 238 242 246
210 214 231 262 273 253 268 210 229 243 251 242 253 270 277 280 289 286 276 270 275 283 284 280 274 266 259 255 247 232 227 224 226 231 236 233 229 235 234 232 235 243 250 247
216 210 221 231 258 272 268 222 213 241 264 245 251 266 279 293 297 285 283 292 288 288 288 283 279 271 261 249 236 216 220 223 226 231 235 240 235 234 232 233 238 246 253 254
203 212 222 228 251 261 277 164 207 241 263 261 258 269 282 291 282 288 335 323 311 310 308 302 295 280 260 248 222 209 217 222 230 235 241 242 237 232 232 235 240 244 245 252
193 211 223 235 248 263 283 155 167 231 282 328 276 270 266 255 270 303 318 319 321 320 319 318 306 286 271 250 220 220 222 228 235 239 239 236 233 232 232 236 239 235 238 245
202 207 216 219 234 252 146 155 208 263 334 315 299 283 269 276 290 300 306 310 317 320 321 324 316 303 298 257 224 228 234 238 232 228 229 233 233 231 226 226 231 228 229 235
217 216 217 214 234 278 174 209 246 297 284 292 288 284 273 278 284 292 298 303 309 312 315 316 308 307 312 288 242 234 245 234 223 222 225 230 233 229 222 219 220 222 225 230
228 228 236 251 254 257 247 248 272 275 274 283 278 272 269 274 280 284 288 295 303 309 312 312 305 300 306 309 295 272 287 256 221 222 227 222 222 227 224 227 225 225 226 231
233 191 227 252 268 290 260 253 267 276 287 288 287 279 273 273 278 280 284 289 296 303 305 303 292 287 294 309 308 317 323 274 236 236 234 220 222 226 230 238 242 238 239 238
201 200 213 246 251 250 278 310 285 269 276 279 285 287 285 274 274 282 285 289 294 299 306 304 300 296 299 307 311 317 318 281 239 244 249 232 217 213 218 232 268 265 258 265
Height
1499 1498 1497 1498 1498 1497 1497 1496 1494 1494 1498 1498 1494 1492 1492 1494 1495 1495 1495 1496 1497 1497 1498 1499 1499 1500 1501 1502 1503 1504 1506 1508 1510 1512 1514 1516 1518 1520 1522 1523 1525 1527 1528 1530
1498 1498 1499 1500 1500 1500 1498 1497 1495 1496 1499 1497 1493 1490 1489 1490 1491 1491 1492 1492 1493 1494 1495 1495 1495 1497 1497 1498 1499 1501 1502 1504 1506 1508 1510 1512 1514 1516 1518 1520 1521 1523 1525 1526
1495 1499 1500 1501 1500 1500 1497 1496 1496 1497 1498 1497 1496 1485 1483 1486 1488 1489 1489 1489 1490 1491 1491 1491 1492 1493 1494 1495 1496 1497 1499 1500 1503 1505 1506 1508 1510 1512 1514 1515 1517 1519 1521 1522
1498 1500 1500 1499 1499 1499 1496 1497 1499 1499 1497 1490 1495 1482 1475 1480 1483 1485 1486 1486 1486 1487 1488 1489 1489 1490 1490 1492 1493 1494 1495 1497 1499 1500 1501 1503 1505 1507 1508 1511 1513 1515 1516 1518
1497 1500 1499 1498 1498 1499 1497 1500 1500 1499 1497 1495 1493 1490 1471 1478 1479 1479 1481 1482 1482 1483 1484 1485 1486 1487 1488 1489 1490 1491 1492 1494 1495 1496 1498 1499 1501 1503 1505 1507 1509 1510 1512 1514
1499 1501 1501 1499 1500 1501 1501 1501 1501 1500 1496 1492 1487 1487 1467 1471 1471 1473 1476 1478 1479 1481 1481 1482 1483 1484 1485 1486 1486 1487 1488 1490 1491 1492 1494 1496 1497 1499 1501 1502 1504 1505 1507 1509
1498 1499 1501 1501 1499 1501 1500 1497 1491 1488 1486 1479 1487 1485 1469 1467 1470 1472 1474 1476 1477 1478 1479 1479 1480 1481 1481 1482 1482 1484 1485 1486 1487 1489 1490 1491 1493 1495 1496 1498 1499 1500 1502 1503
1495 1494 1498 1500 1498 1498 1498 1495 1490 1484 1477 1474 1487 1479 1467 1472 1472 1472 1473 1474 1475 1475 1476 1476 1477 1478 1478 1479 1479 1480 1481 1482 1483 1485 1486 1488 1489 1490 1492 1493 1494 1495 1497 1498
1494 1493 1498 1499 1500 1499 1496 1495 1496 1493 1490 1485 1473 1471 1470 1471 1471 1471 1472 1472 1472 1473 1473 1474 1475 1475 1475 1476 1477 1477 1478 1479 1480 1481 1482 1483 1485 1486 1487 1488 1489 1491 1492 1494
1497 1497 1497 1500 1500 1500 1499 1497 1497 1493 1486 1476 1466 1466 1461 1466 1467 1469 1470 1470 1470 1471 1471 1472 1472 1472 1473 1473 1474 1474 1475 1475 1476 1477 1478 1479 1480 1482 1483 1484 1485 1486 1487 1489
1498 1497 1497 1498 1496 1493 1498 1498 1495 1490 1488 1477 1466 1459 1462 1463 1466 1468 1469 1469 1468 1468 1468 1469 1469 1469 1470 1470 1470 1470 1471 1472 1472 1473 1474 1475 1476 1477 1478 1479 1480 1481 1482 1484
1497 1496 1493 1493 1495 1496 1494 1492 1493 1488 1486 1485 1472 1463 1466 1466 1467 1468 1468 1467 1467 1466 1466 1466 1467 1467 1467 1467 1467 1467 1467 1467 1468 1469 1469 1471 1472 1473 1473 1474 1475 1476 1477 1479
1497 1497 1490 1485 1493 1497 1495 1493 1494 1492 1486 1480 1472 1462 1467 1467 1466 1467 1467 1466 1465 1464 1464 1464 1463 1463 1463 1463 1463 1463 1463 1463 1464 1465 1465 1466 1467 1468 1469 1470 1471 1472 1473 1474
1495 1493 1488 1478 1475 1484 1488 1490 1491 1491 1482 1473 1466 1459 1462 1464 1465 1465 1465 1464 1463 1462 1461 1460 1460 1460 1460 1459 1459 1459 1459 1459 1460 1460 1461 1462 1463 1463 1464 1465 1466 1467 1469 1470
1493 1490 1488 1484 1484 1484 1482 1481 1483 1483 1477 1471 1461 1460 1458 1462 1464 1463 1462 1461 1460 1459 1458 1457 1457 1456 1455 1455 1455 1455 1455 1456 1456 1456 1457 1457 1458 1459 1460 1461 1462 1463 1464 1465
1491 1489 1489 1486 1482 1482 1479 1475 1476 1475 1473 1469 1465 1460 1459 1461 1462 1461 1459 1458 1457 1455 1454 1454 1453 1452 1451 1451 1451 1451 1451 1452 1452 1453 1453 1453 1454 1455 1456 1457 1458 1459 1460 1460
1489 1489 1486 1477 1480 1480 1468 1466 1468 1467 1465 1465 1461 1456 1458 1459 1458 1457 1456 1454 1453 1452 1451 1449 1448 1448 1447 1447 1447 1448 1448 1448 1449 1449 1449 1450 1450 1451 1452 1453 1454 1454 1455 1456
1487 1486 1484 1479 1480 1471 1457 1464 1464 1463 1461 1462 1459 1457 1457 1457 1455 1454 1453 1451 1450 1449 1447 1446 1445 1444 1443 1443 1443 1443 1444 1444 1445 1445 1445 1446 1446 1447 1447 1448 1449 1450 1451 1452
1483 1484 1481 1478 1471 1458 1457 1463 1465 1464 1457 1458 1457 1456 1456 1455 1453 1450 1449 1448 1447 1446 1444 1443 1442 1440 1439 1439 1439 1439 1440 1440 1441 1441 1441 1442 1442 1443 1443 1444 1445 1446 1447 1447
1483 1482 1480 1476 1469 1457 1452 1462 1463 1464 1454 1455 1455 1454 1454 1453 1450 1446 1446 1444 1443 1442 1441 1439 1438 1437 1436 1435 1436 1436 1436 1436 1436 1437 1437 1438 1438 1439 1439 1440 1441 1442 1443 1443
1480 1479 1476 1470 1465 1454 1459 1462 1463 1459 1450 1454 1453 1452 1452 1451 1449 1447 1444 1443 1441 1439 1437 1436 1434 1433 1433 1432 1432 1432 1432 1432 1433 1433 1433 1434 1434 1435 1435 1436 1437 1438 1438 1439
1470 1469 1470 1467 1463 1456 1459 1460 1459 1454 1454 1452 1451 1451 1450 1448 1446 1444 1442 1440 1438 1437 1435 1433 1432 1431 1430 1429 1429 1428 1429 1429 1429 1429 1430 1430 1430 1431 1431 1432 1432 1433 1434 1434
1466 1463 1460 1460 1455 1454 1455 1454 1454 1454 1453 1451 1450 1449 1448 1446 1444 1442 1440 1438 1437 1435 1433 1431 1430 1428 1427 1427 1426 1426 1425 1425 1425 1425 1426 1426 1426 1427 1428 1428 1428 1429 1430 1430
1463 1464 1462 1459 1452 1453 1452 1452 1452 1451 1450 1449 1448 1446 1445 1443 1441 1439 1438 1436 1435 1433 1431 1429 1428 1426 1425 1424 1423 1423 1422 1422 1422 1421 1422 1422 1422 1423 1423 1424 1424 1425 1425 1426
1457 1461 1459 1455 1451 1451 1449 1449 1448 1448 1447 1446 1444 1443 1442 1440 1438 1437 1435 1433 1432 1431 1429 1428 1426 1424 1423 1422 1421 1420 1419 1419 1418 1418 1418 1418 1418 1419 1419 1420 1420 1421 1421 1422
1455 1455 1453 1447 1448 1449 1447 1446 1446 1445 1443 1442 1441 1439 1438 1437 1435 1434 1432 1431 1430 1428 1426 1425 1423 1422 1421 1419 1418 1418 1417 1416 1415 1415 1415 1415 1415 1415 1415 1416 1416 1416 1417 1418